CZ-4B DEB (43659 NORAD) Tracking and Keplerian Element Data

This shows tracking and keplerian element data for the satellite.

Feedback or suggestion? Click here.




ElementValue
Catalog43659
NameCZ-4B DEB
Epoch Orbit403
Epoch Day326.92473795
Epoch Year2018
RAAN332.4355
Inclination99.2988
Eccentricity0.0046378
Argument of Perigee243.9975
Mean Anonmoly115.6387
Mean Motion13.95188878
Decay Rate0.00026693
L11 43659U 18081C 18326.92473795 .00026693 00000-0 19556-1 0 9994
L22 43659 99.2988 332.4355 0046378 243.9975 115.6387 13.95188878 4032

Live tracking and technical data element details for CZ-4B DEB (NORAD 43659). CZ-4B DEB can be tracked NOW for your location showing map with azimuth and elevation plus other details from your city location.

Track the satellite on the map from your city or location and see movement details for azimuth, elevation, latitude, longitude, range, height, and movement on the map or in text.







IsCatalogInMostPopularTable: catalog: 43659, numindb: 136
Update: records affected: 1



GetName: 43659 CZ-4B DEB

Hit Count: updated at: Sun, 21 Jul 2019 14:51:50 GMT